Year,Month,Day,Hour,Minute,Value (Times are PST for temperature in C)
2018,06,16,00,00,14.90
2018,06,16,00,01,14.90
2018,06,16,00,02,14.90
2018,06,16,00,03,14.90
2018,06,16,00,04,14.90
2018,06,16,00,05,14.90
2018,06,16,00,06,14.90
2018,06,16,00,07,14.80
2018,06,16,00,08,14.80
2018,06,16,00,09,14.80
2018,06,16,00,10,14.80
2018,06,16,00,11,14.80
2018,06,16,00,12,14.80
2018,06,16,00,13,14.80
2018,06,16,00,14,14.80
2018,06,16,00,15,14.80
2018,06,16,00,16,14.80
2018,06,16,00,17,14.80
2018,06,16,00,18,14.80
2018,06,16,00,19,14.80
2018,06,16,00,20,14.80
2018,06,16,00,21,14.80
2018,06,16,00,22,14.80
2018,06,16,00,23,14.80
2018,06,16,00,24,14.80
2018,06,16,00,25,14.80
2018,06,16,00,26,14.80
2018,06,16,00,27,14.80
2018,06,16,00,28,14.80
2018,06,16,00,29,14.80
2018,06,16,00,30,14.80
2018,06,16,00,31,14.80
2018,06,16,00,32,14.80
2018,06,16,00,33,14.80
2018,06,16,00,34,14.80
2018,06,16,00,35,14.80
2018,06,16,00,36,14.80
2018,06,16,00,37,14.80
2018,06,16,00,38,14.80
2018,06,16,00,39,14.80
2018,06,16,00,40,14.80
2018,06,16,00,41,14.80
2018,06,16,00,42,14.80
2018,06,16,00,43,14.80
2018,06,16,00,44,14.80
2018,06,16,00,45,14.80
2018,06,16,00,46,14.80
2018,06,16,00,47,14.80
2018,06,16,00,48,14.70
2018,06,16,00,49,14.70
2018,06,16,00,50,14.70
2018,06,16,00,51,14.70
2018,06,16,00,52,14.70
2018,06,16,00,53,14.70
2018,06,16,00,54,14.70
2018,06,16,00,55,14.70
2018,06,16,00,56,14.80
2018,06,16,00,57,14.80
2018,06,16,00,58,14.80
2018,06,16,00,59,14.80
2018,06,16,01,00,14.80
2018,06,16,01,01,14.80
2018,06,16,01,02,14.80
2018,06,16,01,03,14.80
2018,06,16,01,04,14.80
2018,06,16,01,05,14.80
2018,06,16,01,06,14.80
2018,06,16,01,07,14.80
2018,06,16,01,08,14.80
2018,06,16,01,09,14.80
2018,06,16,01,10,14.80
2018,06,16,01,11,14.80
2018,06,16,01,12,14.80
2018,06,16,01,13,14.80
2018,06,16,01,14,14.80
2018,06,16,01,15,14.80
2018,06,16,01,16,14.80
2018,06,16,01,17,14.70
2018,06,16,01,18,14.70
2018,06,16,01,19,14.70
2018,06,16,01,20,14.70
2018,06,16,01,21,14.70
2018,06,16,01,22,14.70
2018,06,16,01,23,14.70
2018,06,16,01,24,14.80
2018,06,16,01,25,14.80
2018,06,16,01,26,14.80
2018,06,16,01,27,14.80
2018,06,16,01,28,14.80
2018,06,16,01,29,14.80
2018,06,16,01,30,14.70
2018,06,16,01,31,14.70
2018,06,16,01,32,14.80
2018,06,16,01,33,14.80
2018,06,16,01,34,14.80
2018,06,16,01,35,14.80
2018,06,16,01,36,14.80
2018,06,16,01,37,14.70
2018,06,16,01,38,14.70
2018,06,16,01,39,14.70
2018,06,16,01,40,14.70
2018,06,16,01,41,14.80
2018,06,16,01,42,14.80
2018,06,16,01,43,14.80
2018,06,16,01,44,14.80
2018,06,16,01,45,14.80
2018,06,16,01,46,14.80
2018,06,16,01,47,14.80
2018,06,16,01,48,14.80
2018,06,16,01,49,14.80
2018,06,16,01,50,14.80
2018,06,16,01,51,14.80
2018,06,16,01,52,14.80
2018,06,16,01,53,14.80
2018,06,16,01,54,14.80
2018,06,16,01,55,14.80
2018,06,16,01,56,14.90
2018,06,16,01,57,14.90
2018,06,16,01,58,14.90
2018,06,16,01,59,14.90
2018,06,16,02,00,14.90
2018,06,16,02,01,14.90
2018,06,16,02,02,14.90
2018,06,16,02,03,14.90
2018,06,16,02,04,14.80
2018,06,16,02,05,14.80
2018,06,16,02,06,14.80
2018,06,16,02,07,14.80
2018,06,16,02,08,14.80
2018,06,16,02,09,14.70
2018,06,16,02,10,14.70
2018,06,16,02,11,14.70
2018,06,16,02,12,14.70
2018,06,16,02,13,14.70
2018,06,16,02,14,14.70
2018,06,16,02,15,14.60
2018,06,16,02,16,14.60
2018,06,16,02,17,14.60
2018,06,16,02,18,14.60
2018,06,16,02,19,14.60
2018,06,16,02,20,14.60
2018,06,16,02,21,14.60
2018,06,16,02,22,14.60
2018,06,16,02,23,14.60
2018,06,16,02,24,14.60
2018,06,16,02,25,14.60
2018,06,16,02,26,14.60
2018,06,16,02,27,14.60
2018,06,16,06,07,13.30
2018,06,16,06,08,13.30
2018,06,16,06,09,13.40
2018,06,16,06,10,13.40
2018,06,16,06,11,13.50
2018,06,16,06,12,13.50
2018,06,16,06,13,13.60
2018,06,16,06,14,13.70
2018,06,16,06,15,13.70
2018,06,16,06,16,13.80
2018,06,16,06,17,13.80
2018,06,16,06,18,13.90
2018,06,16,06,19,13.90
2018,06,16,06,20,14.00
2018,06,16,06,21,14.00
2018,06,16,06,22,14.10
2018,06,16,06,23,14.10
2018,06,16,06,24,14.10
2018,06,16,06,25,14.20
2018,06,16,06,26,14.20
2018,06,16,06,27,14.20
2018,06,16,06,28,14.30
2018,06,16,06,29,14.30
2018,06,16,06,30,14.30
2018,06,16,06,31,14.40
2018,06,16,06,32,14.40
2018,06,16,06,33,14.40
2018,06,16,06,34,14.50
2018,06,16,06,35,14.50
2018,06,16,06,36,14.60
2018,06,16,06,37,14.60
2018,06,16,06,38,14.60
2018,06,16,06,39,14.60
2018,06,16,06,40,14.60
2018,06,16,06,41,14.70
2018,06,16,06,42,14.70
2018,06,16,06,43,14.70
2018,06,16,06,44,14.80
2018,06,16,06,45,14.80
2018,06,16,06,46,14.80
2018,06,16,06,47,14.80
2018,06,16,06,48,14.90
2018,06,16,06,49,14.90
2018,06,16,06,50,14.90
2018,06,16,06,51,14.90
2018,06,16,06,52,14.90
2018,06,16,06,53,15.00
2018,06,16,06,54,15.00
2018,06,16,06,55,15.00
2018,06,16,06,56,15.10
2018,06,16,06,57,15.10
2018,06,16,06,58,15.10
2018,06,16,06,59,15.10
2018,06,16,07,00,15.10
2018,06,16,07,01,15.20
2018,06,16,07,02,15.20
2018,06,16,07,03,15.20
2018,06,16,07,04,15.30
2018,06,16,07,05,15.30
2018,06,16,07,06,15.30
2018,06,16,07,07,15.40
2018,06,16,07,08,15.40
2018,06,16,07,09,15.40
2018,06,16,07,10,15.40
2018,06,16,07,11,15.40
2018,06,16,07,12,15.40
2018,06,16,07,13,15.40
2018,06,16,07,14,15.40
2018,06,16,07,15,15.50
2018,06,16,07,16,15.50
2018,06,16,07,17,15.60
2018,06,16,07,18,15.60
2018,06,16,07,19,15.60
2018,06,16,07,20,15.60
2018,06,16,07,21,15.60
2018,06,16,07,22,15.60
2018,06,16,07,23,15.70
2018,06,16,07,24,15.60
2018,06,16,07,25,15.60
2018,06,16,07,26,15.70
2018,06,16,07,27,15.70
2018,06,16,07,28,15.70
2018,06,16,07,29,15.70
2018,06,16,07,30,15.70
2018,06,16,07,31,15.70
2018,06,16,07,32,15.70
2018,06,16,07,33,15.70
2018,06,16,07,34,15.70
2018,06,16,07,35,15.70
2018,06,16,07,36,15.80
2018,06,16,07,37,15.80
2018,06,16,07,38,15.80
2018,06,16,07,39,15.90
2018,06,16,07,40,15.90
2018,06,16,07,41,16.00
2018,06,16,07,42,16.00
2018,06,16,07,43,16.10
2018,06,16,07,44,16.10
2018,06,16,07,45,16.10
2018,06,16,07,46,16.20
2018,06,16,07,47,16.20
2018,06,16,07,48,16.20
2018,06,16,07,49,16.20
2018,06,16,07,50,16.20
2018,06,16,07,51,16.20
2018,06,16,07,52,16.20
2018,06,16,07,53,16.20
2018,06,16,07,54,16.20
2018,06,16,07,55,16.30
2018,06,16,07,56,16.30
2018,06,16,07,57,16.30
2018,06,16,07,58,16.40
2018,06,16,07,59,16.40
2018,06,16,08,00,16.40
2018,06,16,08,01,16.40
2018,06,16,08,02,16.40
2018,06,16,08,03,16.30
2018,06,16,08,04,16.40
2018,06,16,08,05,16.40
2018,06,16,08,06,16.50
2018,06,16,08,07,16.50
2018,06,16,08,08,16.50
2018,06,16,08,09,16.60
2018,06,16,08,10,16.70
2018,06,16,08,11,16.80
2018,06,16,08,12,16.80
2018,06,16,08,13,16.80
2018,06,16,08,14,16.80
2018,06,16,08,15,16.70
2018,06,16,08,16,16.60
2018,06,16,08,17,16.60
2018,06,16,08,18,16.60
2018,06,16,08,19,16.60
2018,06,16,08,20,16.60
2018,06,16,08,21,16.60
2018,06,16,08,22,16.60
2018,06,16,08,23,16.60
2018,06,16,08,24,16.70
2018,06,16,08,25,16.80
2018,06,16,08,26,16.80
2018,06,16,08,27,16.90
2018,06,16,08,28,16.90
2018,06,16,08,29,17.00
2018,06,16,08,30,17.00
2018,06,16,08,31,17.10
2018,06,16,08,32,17.10
2018,06,16,08,33,17.10
2018,06,16,08,34,17.10
2018,06,16,08,35,17.00
2018,06,16,08,36,17.00
2018,06,16,08,37,17.00
2018,06,16,08,38,17.10
2018,06,16,08,39,17.10
2018,06,16,08,40,17.20
2018,06,16,08,41,17.20
2018,06,16,08,42,17.20
2018,06,16,08,43,17.30
2018,06,16,08,44,17.30
2018,06,16,08,45,17.30
2018,06,16,08,46,17.30
2018,06,16,08,47,17.40
2018,06,16,08,48,17.30
2018,06,16,08,49,17.30
2018,06,16,08,50,17.40
2018,06,16,08,51,17.40
2018,06,16,08,52,17.40
2018,06,16,08,53,17.50
2018,06,16,08,54,17.50
2018,06,16,08,55,17.50
2018,06,16,08,56,17.60
2018,06,16,08,57,17.60
2018,06,16,08,58,17.60
2018,06,16,08,59,17.60
2018,06,16,09,00,17.70
2018,06,16,09,01,17.80
2018,06,16,09,02,17.90
2018,06,16,09,03,17.90
2018,06,16,09,04,18.00
2018,06,16,09,05,18.00
2018,06,16,09,06,18.00
2018,06,16,09,07,18.00
2018,06,16,09,08,18.00
2018,06,16,09,09,18.00
2018,06,16,09,10,18.00
2018,06,16,09,11,18.10
2018,06,16,09,12,18.20
2018,06,16,09,13,18.30
2018,06,16,09,14,18.30
2018,06,16,09,15,18.40
2018,06,16,09,16,18.40
2018,06,16,09,17,18.50
2018,06,16,09,18,18.60
2018,06,16,09,19,18.60
2018,06,16,09,20,18.70
2018,06,16,09,21,18.70
2018,06,16,09,22,18.70
2018,06,16,09,23,18.70
2018,06,16,09,24,18.70
2018,06,16,09,25,18.70
2018,06,16,09,26,18.70
2018,06,16,09,27,18.70
2018,06,16,09,28,18.80
2018,06,16,09,29,18.80
2018,06,16,09,30,18.80
2018,06,16,09,31,18.90
2018,06,16,09,32,18.90
2018,06,16,09,33,19.00
2018,06,16,09,34,19.10
2018,06,16,09,35,19.10
2018,06,16,09,36,19.00
2018,06,16,09,37,19.00
2018,06,16,09,38,18.90
2018,06,16,09,39,18.90
2018,06,16,09,40,18.90
2018,06,16,09,41,18.90
2018,06,16,09,42,18.90
2018,06,16,09,43,18.90
2018,06,16,09,44,19.00
2018,06,16,09,45,19.00
2018,06,16,09,46,19.00
2018,06,16,09,47,18.90
2018,06,16,09,48,19.00
2018,06,16,09,49,19.10
2018,06,16,09,50,19.10
2018,06,16,09,51,19.20
2018,06,16,09,52,19.20
2018,06,16,09,53,19.20
2018,06,16,09,54,19.20
2018,06,16,09,55,19.30
2018,06,16,09,56,19.30
2018,06,16,09,57,19.30
2018,06,16,09,58,19.40
2018,06,16,09,59,19.50
2018,06,16,10,00,19.50
2018,06,16,10,01,19.40
2018,06,16,10,02,19.40
2018,06,16,10,03,19.40
2018,06,16,10,04,19.40
2018,06,16,10,05,19.40
2018,06,16,10,06,19.40
2018,06,16,10,07,19.40
2018,06,16,10,08,19.30
2018,06,16,10,09,19.40
2018,06,16,10,10,19.40
2018,06,16,10,11,19.50
2018,06,16,10,12,19.50
2018,06,16,10,13,19.60
2018,06,16,10,14,19.60
2018,06,16,10,15,19.70
2018,06,16,10,16,19.80
2018,06,16,10,17,19.70
2018,06,16,10,18,19.70
2018,06,16,10,19,19.60
2018,06,16,10,20,19.60
2018,06,16,10,21,19.50
2018,06,16,10,22,19.50
2018,06,16,10,23,19.50
2018,06,16,10,24,19.50
2018,06,16,10,25,19.60
2018,06,16,10,26,19.60
2018,06,16,10,27,19.70
2018,06,16,10,28,19.70
2018,06,16,10,29,19.70
2018,06,16,10,30,19.70
2018,06,16,10,31,19.70
2018,06,16,10,32,19.80
2018,06,16,10,33,19.80
2018,06,16,10,34,19.80
2018,06,16,10,35,19.80
2018,06,16,10,36,19.80
2018,06,16,10,37,19.80
2018,06,16,10,38,19.80
2018,06,16,10,39,19.80
2018,06,16,10,40,19.80
2018,06,16,10,41,19.80
2018,06,16,10,42,19.80
2018,06,16,10,43,19.90
2018,06,16,10,44,19.90
2018,06,16,10,45,20.00
2018,06,16,10,46,20.00
2018,06,16,10,47,20.00
2018,06,16,10,48,20.10
2018,06,16,10,49,20.10
2018,06,16,10,50,20.10
2018,06,16,10,51,20.10
2018,06,16,10,52,20.20
2018,06,16,10,53,20.20
2018,06,16,10,54,20.20
2018,06,16,10,55,20.30
2018,06,16,10,56,20.40
2018,06,16,10,57,20.40
2018,06,16,10,58,20.40
2018,06,16,10,59,20.50
2018,06,16,11,00,20.50
2018,06,16,11,01,20.50
2018,06,16,11,02,20.60
2018,06,16,11,03,20.70
2018,06,16,11,04,20.70
2018,06,16,11,05,20.70
2018,06,16,11,06,20.70
2018,06,16,11,07,20.80
2018,06,16,11,08,20.70
2018,06,16,11,09,20.70
2018,06,16,11,10,20.70
2018,06,16,11,11,20.60
2018,06,16,11,12,20.60
2018,06,16,11,13,20.50
2018,06,16,11,14,20.50
2018,06,16,11,15,20.50
2018,06,16,11,16,20.60
2018,06,16,11,17,20.70
2018,06,16,11,18,20.70
2018,06,16,11,19,20.80
2018,06,16,11,20,20.80
2018,06,16,11,21,20.90
2018,06,16,11,22,20.90
2018,06,16,11,23,21.00
2018,06,16,11,24,21.10
2018,06,16,11,25,21.10
2018,06,16,11,26,21.20
2018,06,16,11,27,21.30
2018,06,16,11,28,21.30
2018,06,16,11,29,21.20
2018,06,16,11,30,21.20
2018,06,16,11,31,21.20
2018,06,16,11,32,21.20
2018,06,16,11,33,21.20
2018,06,16,11,34,21.30
2018,06,16,11,35,21.50
2018,06,16,11,36,21.50
2018,06,16,11,37,21.60
2018,06,16,11,38,21.70
2018,06,16,11,39,21.70
2018,06,16,11,40,21.60
2018,06,16,11,41,21.60
2018,06,16,11,42,21.70
2018,06,16,11,43,21.70
2018,06,16,11,44,21.70
2018,06,16,11,45,21.80
2018,06,16,11,46,21.90
2018,06,16,11,47,22.00
2018,06,16,11,48,22.00
2018,06,16,11,49,22.00
2018,06,16,11,50,21.90
2018,06,16,11,51,21.80
2018,06,16,11,52,21.90
2018,06,16,11,53,22.00
2018,06,16,11,54,22.00
2018,06,16,11,55,22.10
2018,06,16,11,56,22.30
2018,06,16,11,57,22.40
2018,06,16,11,58,22.50
2018,06,16,11,59,22.60
2018,06,16,12,00,22.70
2018,06,16,12,01,22.60
2018,06,16,12,02,22.50
2018,06,16,12,03,22.30
2018,06,16,12,04,22.30
2018,06,16,12,05,22.30
2018,06,16,12,06,22.40
2018,06,16,12,07,22.40
2018,06,16,12,08,22.40
2018,06,16,12,09,22.40
2018,06,16,12,10,22.40
2018,06,16,12,11,22.40
2018,06,16,12,12,22.40
2018,06,16,12,13,22.50
2018,06,16,12,14,22.40
2018,06,16,12,15,22.40
2018,06,16,12,16,22.40
2018,06,16,12,17,22.40
2018,06,16,12,18,22.40
2018,06,16,12,19,22.40
2018,06,16,12,20,22.50
2018,06,16,12,21,22.60
2018,06,16,12,22,22.70
2018,06,16,12,23,22.70
2018,06,16,12,24,22.60
2018,06,16,12,25,22.50
2018,06,16,12,26,22.60
2018,06,16,12,27,22.50
2018,06,16,12,28,22.40
2018,06,16,12,29,22.30
2018,06,16,12,30,22.30
2018,06,16,12,31,22.50
2018,06,16,12,32,22.60
2018,06,16,12,33,22.70
2018,06,16,12,34,22.90
2018,06,16,12,35,23.00
2018,06,16,12,36,23.10
2018,06,16,12,37,23.20
2018,06,16,12,38,23.20
2018,06,16,12,39,23.10
2018,06,16,12,40,23.10
2018,06,16,12,41,23.10
2018,06,16,12,42,23.20
2018,06,16,12,43,23.20
2018,06,16,12,44,23.20
2018,06,16,12,45,23.20
2018,06,16,12,46,23.20
2018,06,16,12,47,23.20
2018,06,16,12,48,23.30
2018,06,16,12,49,23.30
2018,06,16,12,50,23.40
2018,06,16,12,51,23.40
2018,06,16,12,52,23.50
2018,06,16,12,53,23.60
2018,06,16,12,54,23.70
2018,06,16,12,55,23.70
2018,06,16,12,56,23.70
2018,06,16,12,57,23.60
2018,06,16,12,58,23.60
2018,06,16,12,59,23.60
2018,06,16,13,00,23.70
2018,06,16,13,01,23.70
2018,06,16,13,02,23.60
2018,06,16,13,03,23.60
2018,06,16,13,04,23.60
2018,06,16,13,05,23.50
2018,06,16,13,06,23.50
2018,06,16,13,07,23.50
2018,06,16,13,08,23.40
2018,06,16,13,09,23.40
2018,06,16,13,10,23.40
2018,06,16,13,11,23.40
2018,06,16,13,12,23.40
2018,06,16,13,13,23.40
2018,06,16,13,14,23.50
2018,06,16,13,15,23.60
2018,06,16,13,16,23.60
2018,06,16,13,17,23.60
2018,06,16,13,18,23.60
2018,06,16,13,19,23.60
2018,06,16,13,20,23.50
2018,06,16,13,21,23.50
2018,06,16,13,22,23.50
2018,06,16,13,23,23.60
2018,06,16,13,24,23.70
2018,06,16,13,25,23.80
2018,06,16,13,26,23.80
2018,06,16,13,27,23.80
2018,06,16,13,28,23.90
2018,06,16,13,29,23.90
2018,06,16,13,30,24.00
2018,06,16,13,31,24.00
2018,06,16,13,32,24.20
2018,06,16,13,33,24.30
2018,06,16,13,34,24.30
2018,06,16,13,35,24.30
2018,06,16,13,36,24.40
2018,06,16,13,37,24.40
2018,06,16,13,38,24.40
2018,06,16,13,39,24.50
2018,06,16,13,40,24.50
2018,06,16,13,41,24.50
2018,06,16,13,42,24.50
2018,06,16,13,43,24.40
2018,06,16,13,44,24.30
2018,06,16,13,45,24.30
2018,06,16,13,46,24.30
2018,06,16,13,47,24.30
2018,06,16,13,48,24.30
2018,06,16,13,49,24.30
2018,06,16,13,50,24.30
2018,06,16,13,51,24.30
2018,06,16,13,52,24.30
2018,06,16,13,53,24.20
2018,06,16,13,54,24.20
2018,06,16,13,55,24.10
2018,06,16,13,56,24.10
2018,06,16,13,57,24.00
2018,06,16,13,58,24.00
2018,06,16,13,59,24.10
2018,06,16,14,00,24.10
2018,06,16,14,01,24.10
2018,06,16,14,02,24.10
2018,06,16,14,03,24.10
2018,06,16,14,04,24.10
2018,06,16,14,05,24.20
2018,06,16,14,06,24.20
2018,06,16,14,07,24.20
2018,06,16,14,08,24.10
2018,06,16,14,09,24.10
2018,06,16,14,10,24.00
2018,06,16,14,11,24.10
2018,06,16,14,12,24.10
2018,06,16,14,13,24.10
2018,06,16,14,14,24.20
2018,06,16,14,15,24.30
2018,06,16,14,16,24.40
2018,06,16,14,17,24.50
2018,06,16,14,18,24.50
2018,06,16,14,19,24.60
2018,06,16,14,20,24.70
2018,06,16,14,21,24.60
2018,06,16,14,22,24.60
2018,06,16,14,23,24.60
2018,06,16,14,24,24.50
2018,06,16,14,25,24.50
2018,06,16,14,26,24.60
2018,06,16,14,27,24.60
2018,06,16,14,28,24.60
2018,06,16,14,29,24.70
2018,06,16,14,30,24.80
2018,06,16,14,31,24.80
2018,06,16,14,32,24.80
2018,06,16,14,33,24.80
2018,06,16,14,34,24.80
2018,06,16,14,35,24.90
2018,06,16,14,36,25.00
2018,06,16,14,37,25.10
2018,06,16,14,38,25.10
2018,06,16,14,39,25.10
2018,06,16,14,40,25.10
2018,06,16,14,41,25.10
2018,06,16,14,42,25.10
2018,06,16,14,43,25.10
2018,06,16,14,44,25.10
2018,06,16,14,45,25.20
2018,06,16,14,46,25.20
2018,06,16,14,47,25.20
2018,06,16,14,48,25.20
2018,06,16,14,49,25.20
2018,06,16,14,50,25.10
2018,06,16,14,51,25.10
2018,06,16,14,52,25.00
2018,06,16,14,53,25.00
2018,06,16,14,54,25.00
2018,06,16,14,55,24.90
2018,06,16,14,56,24.90
2018,06,16,14,57,25.00
2018,06,16,14,58,25.00
2018,06,16,14,59,25.10
2018,06,16,15,00,25.20
2018,06,16,15,01,25.20
2018,06,16,15,02,25.20
2018,06,16,15,03,25.10
2018,06,16,15,04,25.10
2018,06,16,15,05,25.10
2018,06,16,15,06,25.10
2018,06,16,15,07,25.20
2018,06,16,15,08,25.20
2018,06,16,15,09,25.20
2018,06,16,15,10,25.30
2018,06,16,15,11,25.40
2018,06,16,15,12,25.40
2018,06,16,15,13,25.50
2018,06,16,15,14,25.50
2018,06,16,15,15,25.50
2018,06,16,15,16,25.40
2018,06,16,15,17,25.40
2018,06,16,15,18,25.40
2018,06,16,15,19,25.50
2018,06,16,15,20,25.50
2018,06,16,15,21,25.40
2018,06,16,15,22,25.30
2018,06,16,15,23,25.20
2018,06,16,15,24,25.10
2018,06,16,15,25,25.10
2018,06,16,15,26,25.10
2018,06,16,15,27,25.20
2018,06,16,15,28,25.30
2018,06,16,15,29,25.30
2018,06,16,15,30,25.40
2018,06,16,15,31,25.30
2018,06,16,15,32,25.30
2018,06,16,15,33,25.30
2018,06,16,15,34,25.40
2018,06,16,15,35,25.40
2018,06,16,15,36,25.50
2018,06,16,15,37,25.50
2018,06,16,15,38,25.50
2018,06,16,15,39,25.60
2018,06,16,15,40,25.70
2018,06,16,15,41,25.80
2018,06,16,15,42,25.90
2018,06,16,15,43,25.90
2018,06,16,15,44,25.90
2018,06,16,15,45,25.90
2018,06,16,15,46,25.90
2018,06,16,15,47,25.80
2018,06,16,15,48,25.70
2018,06,16,15,49,25.70
2018,06,16,15,50,25.70
2018,06,16,15,51,25.70
2018,06,16,15,52,25.70
2018,06,16,15,53,25.60
2018,06,16,15,54,25.70
2018,06,16,15,55,25.80
2018,06,16,15,56,25.90
2018,06,16,15,57,26.00
2018,06,16,15,58,26.00
2018,06,16,15,59,26.00
2018,06,16,16,00,26.00
2018,06,16,16,01,25.90
2018,06,16,16,02,26.00
2018,06,16,16,03,26.00
2018,06,16,16,04,26.10
2018,06,16,16,05,26.20
2018,06,16,16,06,26.20
2018,06,16,16,07,26.20
2018,06,16,16,08,26.20
2018,06,16,16,09,26.10
2018,06,16,16,10,26.10
2018,06,16,16,11,26.10
2018,06,16,16,12,26.10
2018,06,16,16,13,26.10
2018,06,16,16,14,26.10
2018,06,16,16,15,26.10
2018,06,16,16,16,26.10
2018,06,16,16,17,26.00
2018,06,16,16,18,25.80
2018,06,16,16,19,25.70
2018,06,16,16,20,25.60
2018,06,16,16,21,25.50
2018,06,16,16,22,25.40
2018,06,16,16,23,25.30
2018,06,16,16,24,25.30
2018,06,16,16,25,25.40
2018,06,16,16,26,25.50
2018,06,16,16,27,25.60
2018,06,16,16,28,25.70
2018,06,16,16,29,25.80
2018,06,16,16,30,26.00
2018,06,16,16,31,26.00
2018,06,16,16,32,26.10
2018,06,16,16,33,26.20
2018,06,16,16,34,26.20
2018,06,16,16,35,26.30
2018,06,16,16,36,26.30
2018,06,16,16,37,26.40
2018,06,16,16,38,26.60
2018,06,16,16,39,26.70
2018,06,16,16,40,26.80
2018,06,16,16,41,26.90
2018,06,16,16,42,26.90
2018,06,16,16,43,26.90
2018,06,16,16,44,26.70
2018,06,16,16,45,26.70
2018,06,16,16,46,26.70
2018,06,16,16,47,26.70
2018,06,16,16,48,26.60
2018,06,16,16,49,26.40
2018,06,16,16,50,26.30
2018,06,16,16,51,26.30
2018,06,16,16,52,26.10
2018,06,16,16,53,26.00
2018,06,16,16,54,25.80
2018,06,16,16,55,25.70
2018,06,16,16,56,25.60
2018,06,16,16,57,25.50
2018,06,16,16,58,25.40
2018,06,16,16,59,25.40
2018,06,16,17,00,25.50
2018,06,16,17,01,25.50
2018,06,16,17,02,25.60
2018,06,16,17,03,25.60
2018,06,16,17,04,25.70
2018,06,16,17,05,25.70
2018,06,16,17,06,25.80
2018,06,16,17,07,25.90
2018,06,16,17,08,26.00
2018,06,16,17,09,26.10
2018,06,16,17,10,26.30
2018,06,16,17,11,26.30
2018,06,16,17,12,26.30
2018,06,16,17,13,26.30
2018,06,16,17,14,26.40
2018,06,16,17,15,26.50
2018,06,16,17,16,26.50
2018,06,16,17,17,26.60
2018,06,16,17,18,26.70
2018,06,16,17,19,26.80
2018,06,16,17,20,26.80
2018,06,16,17,21,26.80
2018,06,16,17,22,26.90
2018,06,16,17,23,27.00
2018,06,16,17,24,27.10
2018,06,16,17,25,27.10
2018,06,16,17,26,27.10
2018,06,16,17,27,27.10
2018,06,16,17,28,27.00
2018,06,16,17,29,27.10
2018,06,16,17,30,27.10
2018,06,16,17,31,27.10
2018,06,16,17,32,27.10
2018,06,16,17,33,27.10
2018,06,16,17,34,27.10
2018,06,16,17,35,27.10
2018,06,16,17,36,26.90
2018,06,16,17,37,26.80
2018,06,16,17,38,26.80
2018,06,16,17,39,26.80
2018,06,16,17,40,26.70
2018,06,16,17,41,26.80
2018,06,16,17,42,26.80
2018,06,16,17,43,26.80
2018,06,16,17,44,26.80
2018,06,16,17,45,26.90
2018,06,16,17,46,26.90
2018,06,16,17,47,26.90
2018,06,16,17,48,27.00
2018,06,16,17,49,27.00
2018,06,16,17,50,27.00
2018,06,16,17,51,27.00
2018,06,16,17,52,27.00
2018,06,16,17,53,27.00
2018,06,16,17,54,27.10
2018,06,16,17,55,27.10
2018,06,16,17,56,27.10
2018,06,16,17,57,27.10
2018,06,16,17,58,27.00
2018,06,16,17,59,27.00
2018,06,16,18,00,27.10
2018,06,16,18,01,27.00
2018,06,16,18,02,27.00
2018,06,16,18,03,27.00
2018,06,16,18,04,26.90
2018,06,16,18,05,27.00
2018,06,16,18,06,27.10
2018,06,16,18,07,27.10
2018,06,16,18,08,27.10
2018,06,16,18,09,27.20
2018,06,16,18,10,27.20
2018,06,16,18,11,27.20
2018,06,16,18,12,27.20
2018,06,16,18,13,27.10
2018,06,16,18,14,27.10
2018,06,16,18,15,27.10
2018,06,16,18,16,27.10
2018,06,16,18,17,27.00
2018,06,16,18,18,27.00
2018,06,16,18,19,26.90
2018,06,16,18,20,26.90
2018,06,16,18,21,26.80
2018,06,16,18,22,26.90
2018,06,16,18,23,26.90
2018,06,16,18,24,26.90
2018,06,16,18,25,26.80
2018,06,16,18,26,26.80
2018,06,16,18,27,26.90
2018,06,16,18,28,26.90
2018,06,16,18,29,27.00
2018,06,16,18,30,27.00
2018,06,16,18,31,27.00
2018,06,16,18,32,27.00
2018,06,16,18,33,26.90
2018,06,16,18,34,26.90
2018,06,16,18,35,26.90
2018,06,16,18,36,27.00
2018,06,16,18,37,27.00
2018,06,16,18,38,26.90
2018,06,16,18,39,26.90
2018,06,16,18,40,26.80
2018,06,16,18,41,26.80
2018,06,16,18,42,26.80
2018,06,16,18,43,26.70
2018,06,16,18,44,26.70
2018,06,16,18,45,26.60
2018,06,16,18,46,26.70
2018,06,16,18,47,26.70
2018,06,16,18,48,26.70
2018,06,16,18,49,26.70
2018,06,16,18,50,26.70
2018,06,16,18,51,26.70
2018,06,16,18,52,26.80
2018,06,16,18,53,26.80
2018,06,16,18,54,26.80
2018,06,16,18,55,26.70
2018,06,16,18,56,26.70
2018,06,16,18,57,26.60
2018,06,16,18,58,26.60
2018,06,16,18,59,26.60
2018,06,16,19,00,26.60
2018,06,16,19,01,26.50
2018,06,16,19,02,26.50
2018,06,16,19,03,26.50
2018,06,16,19,04,26.40
2018,06,16,19,05,26.40
2018,06,16,19,06,26.40
2018,06,16,19,07,26.40
2018,06,16,19,08,26.30
2018,06,16,19,09,26.30
2018,06,16,19,10,26.20
2018,06,16,19,11,26.10
2018,06,16,19,12,26.20
2018,06,16,19,13,26.20
2018,06,16,19,14,26.20
2018,06,16,19,15,26.20
2018,06,16,19,16,26.20
2018,06,16,19,17,26.20
2018,06,16,19,18,26.20
2018,06,16,19,19,26.20
2018,06,16,19,20,26.20
2018,06,16,19,21,26.20
2018,06,16,19,22,26.20
2018,06,16,19,23,26.30
2018,06,16,19,24,26.30
2018,06,16,19,25,26.30
2018,06,16,19,26,26.20
2018,06,16,19,27,26.30
2018,06,16,19,28,26.30
2018,06,16,19,29,26.20
2018,06,16,19,30,26.20
2018,06,16,19,31,26.30
2018,06,16,19,32,26.30
2018,06,16,19,33,26.30
2018,06,16,19,34,26.30
2018,06,16,19,35,26.30
2018,06,16,19,36,26.30
2018,06,16,19,37,26.30
2018,06,16,19,38,26.30
2018,06,16,19,39,26.30
2018,06,16,19,40,26.30
2018,06,16,19,41,26.30
2018,06,16,19,42,26.30
2018,06,16,19,43,26.30
2018,06,16,19,44,26.30
2018,06,16,19,45,26.40
2018,06,16,19,46,26.40
2018,06,16,19,47,26.40
2018,06,16,19,48,26.50
2018,06,16,19,49,26.40
2018,06,16,19,50,26.40
2018,06,16,19,51,26.40
2018,06,16,19,52,26.40
2018,06,16,19,53,26.30
2018,06,16,19,54,26.30
2018,06,16,19,55,26.30
2018,06,16,19,56,26.30
2018,06,16,19,57,26.30
2018,06,16,19,58,26.30
2018,06,16,19,59,26.30
2018,06,16,20,00,26.30
2018,06,16,20,01,26.30
2018,06,16,20,02,26.30
2018,06,16,20,03,26.30
2018,06,16,20,04,26.40
2018,06,16,20,05,26.40
2018,06,16,20,06,26.40
2018,06,16,20,07,26.40
2018,06,16,20,08,26.50
2018,06,16,20,09,26.50
2018,06,16,20,10,26.40
2018,06,16,20,11,26.40
2018,06,16,20,12,26.40
2018,06,16,20,13,26.40
2018,06,16,20,14,26.50
2018,06,16,20,15,26.50
2018,06,16,20,16,26.40
2018,06,16,20,17,26.40
2018,06,16,20,18,26.40
2018,06,16,20,19,26.40
2018,06,16,20,20,26.30
2018,06,16,20,21,26.30
2018,06,16,20,22,26.30
2018,06,16,20,23,26.20
2018,06,16,20,24,26.10
2018,06,16,20,25,26.10
2018,06,16,20,26,26.00
2018,06,16,20,27,26.00
2018,06,16,20,28,25.90
2018,06,16,20,29,25.90
2018,06,16,20,30,25.90
2018,06,16,20,31,25.90
2018,06,16,20,32,25.80
2018,06,16,20,33,25.80
2018,06,16,20,34,25.80
2018,06,16,20,35,25.80
2018,06,16,20,36,25.70
2018,06,16,20,37,25.70
2018,06,16,20,38,25.70
2018,06,16,20,39,25.70
2018,06,16,20,40,25.60
2018,06,16,20,41,25.60
2018,06,16,20,42,25.60
2018,06,16,20,43,25.60
2018,06,16,20,44,25.50
2018,06,16,20,45,25.50
2018,06,16,20,46,25.50
2018,06,16,20,47,25.40
2018,06,16,20,48,25.40
2018,06,16,20,49,25.40
2018,06,16,20,50,25.40
2018,06,16,20,51,25.40
2018,06,16,20,52,25.40
2018,06,16,20,53,25.40
2018,06,16,20,54,25.40
2018,06,16,20,55,25.30
2018,06,16,20,56,25.30
2018,06,16,20,57,25.30
2018,06,16,20,58,25.20